Content
SEND FEEDBACK

Daily
Averages
Monthly
Summary
United States of America

MANGILAO, GUAM


Home > North America > United States > Guam
Elevation: 60 feet     Latitude: 13 27N     Longitude: 144 49E

WEATHER
 
SELECT A DAY
Number of Records: 341,964;   Date Range: 1/1/95 - 7/26/14
 
SHARE

PRINT THIS DATA

[ ← Previous Day ]
WEATHER ALMANAC - NOVEMBER 5, 2013
[ Next Day → ]
[ °C ]   °F
Weather ElementAverageHighLow
Temperature80.1 °F81.5 °F (1:58 pm)78.1 °F (4:58 am)
Dewpoint77.7 °F78.8 °F (10:22 am)74.3 °F (2:58 am)
Humidity92.5 %100 % (10:22 am)83 % (2:58 am)
Barometer29.83 in29.90 in (8:47 am)29.75 in (3:58 pm)
Wind Speed16.1 mph23 mph (8:47 am)
Wind Gust32.2 mph (8:47 am)
Weather ElementAverage
Visibility9.3 mi
Wind DirectionENE (61.7 °)

Weather ElementTotal
Precipitation0.12 in
Cooling Degree Days14.8 (Base 65)
Growing Degree Days29.8 (Base 50)
Averaged from 83 records on November 5, 2013
WEATHER CONDITIONS BREAKOUT
WIND DIRECTION BREAKOUT
WEATHER BY HOUR - NOVEMBER 5, 2013
[ °C ]   °F
Local TimeTemperatureDewpointHumidityBarometerVisibilityWind DirectionWind SpeedGust SpeedPrecipitationEventsConditions
12:18 AM80.6 °F75.2 °F84 %29.88 in10.0 miNE (50°)18.4 mphMostly Cloudy
12:23 AM80.6 °F75.2 °F84 %29.88 in10.0 miENE (60°)17.3 mphScattered Clouds
12:58 AM79.9 °F75.6 °F87 %29.84 in10.0 miNE (50°)16.1 mphScattered Clouds
1:58 AM80.1 °F76.1 °F88 %29.82 in10.0 miNE (50°)15.0 mphPartly Cloudy
2:58 AM79.7 °F74.3 °F83 %29.81 in10.0 miNE (50°)15.0 mphPartly Cloudy
3:48 AM80.6 °F77.0 °F89 %29.84 in10.0 miNE (50°)17.3 mphMostly Cloudy
3:53 AM80.6 °F75.2 °F84 %29.84 in10.0 miNE (50°)13.8 mphScattered Clouds
3:58 AM79.7 °F75.2 °F86 %29.81 in10.0 miNE (50°)18.4 mphScattered Clouds
4:47 AM78.8 °F77.0 °F94 %29.84 in10.0 miNE (50°)18.4 mphRainLight Rain
4:58 AM78.1 °F75.2 °F91 %29.81 in5.0 miNE (40°)12.7 mph26.5 mph0.02 inRainLight Rain
5:02 AM78.8 °F75.2 °F89 %29.84 in10.0 miNE (40°)11.5 mphScattered Clouds
5:58 AM79.3 °F76.1 °F90 %29.82 in10.0 miNE (50°)17.3 mph0.00 inPartly Cloudy
6:58 AM79.9 °F76.6 °F90 %29.83 in10.0 miNE (50°)18.4 mph23.0 mph0.01 inPartly Cloudy
7:28 AM80.6 °F75.2 °F84 %29.87 in10.0 miNE (40°)17.3 mphMostly Cloudy
7:53 AM80.6 °F75.2 °F84 %29.87 in10.0 miNE (40°)18.4 mphScattered Clouds
7:58 AM81.0 °F76.3 °F86 %29.84 in10.0 miNE (40°)19.6 mphScattered Clouds
8:47 AM80.6 °F77.0 °F89 %29.90 in7.0 miNE (40°)23.0 mph32.2 mphRainLight Rain
8:58 AM78.1 °F76.1 °F94 %29.86 in7.0 miNE (40°)17.3 mph0.01 inRainLight Rain
9:01 AM78.8 °F77.0 °F94 %29.89 in10.0 miNE (40°)16.1 mphScattered Clouds
9:46 AM80.6 °F77.0 °F89 %29.90 in10.0 miENE (60°)15.0 mph24.2 mphMostly Cloudy
9:49 AM80.6 °F77.0 °F89 %29.90 in9.0 miNE (50°)23.0 mph27.6 mphLight Drizzle
9:58 AM78.8 °F77.0 °F94 %29.86 in2.0 miENE (60°)16.1 mph27.6 mph0.00 inRainRain
10:03 AM78.8 °F77.0 °F94 %29.89 in2.0 miENE (60°)13.8 mphRainLight Rain
10:07 AM78.8 °F77.0 °F94 %29.89 in7.0 miENE (60°)13.8 mphMostly Cloudy
10:22 AM78.8 °F78.8 °F100 %29.88 in10.0 miENE (60°)12.7 mphMostly Cloudy
10:27 AM78.8 °F77.0 °F94 %29.88 in10.0 miENE (70°)12.7 mphScattered Clouds
10:58 AM79.9 °F77.9 °F94 %29.86 in10.0 miENE (60°)16.1 mph0.04 inPartly Cloudy
11:08 AM80.6 °F78.8 °F94 %29.87 in10.0 miNE (50°)16.1 mphMostly Cloudy
11:13 AM80.6 °F78.8 °F94 %29.86 in10.0 miNE (50°)17.3 mphMostly Cloudy
11:19 AM78.8 °F78.8 °F100 %29.86 in8.0 miNE (50°)17.3 mphRainRain
11:39 AM78.8 °F78.8 °F100 %29.85 in7.0 miENE (60°)16.1 mph23.0 mphRainLight Rain
11:43 AM78.8 °F78.8 °F100 %29.85 in10.0 miENE (70°)13.8 mphMostly Cloudy
11:52 AM78.8 °F78.8 °F100 %29.84 in7.0 miENE (60°)18.4 mph23.0 mphRainLight Rain
11:57 AM78.8 °F77.0 °F94 %29.84 in7.0 miENE (70°)16.1 mphLight Drizzle
11:58 AM79.2 °F77.4 °F94 %29.81 in7.0 miENE (70°)15.0 mph23.0 mph0.02 inLight Drizzle
12:03 PM78.8 °F78.8 °F100 %29.84 in9.0 miENE (70°)17.3 mphRainLight Rain
12:04 PM78.8 °F78.8 °F100 %29.83 in9.0 miENE (70°)17.3 mphScattered Clouds
12:09 PM78.8 °F77.0 °F94 %29.83 in9.0 miENE (70°)17.3 mphMostly Cloudy
12:14 PM80.6 °F78.8 °F94 %29.83 in10.0 miENE (70°)18.4 mph24.2 mphScattered Clouds
12:58 PM81.1 °F78.8 °F93 %29.81 in10.0 miENE (70°)16.1 mph0.00 inScattered Clouds
1:03 PM80.6 °F78.8 °F94 %29.82 in10.0 miENE (70°)16.1 mphMostly Cloudy
1:13 PM80.6 °F77.0 °F89 %29.82 in10.0 miENE (60°)17.3 mphMostly Cloudy
1:18 PM80.6 °F78.8 °F94 %29.82 in10.0 miENE (70°)15.0 mphScattered Clouds
1:58 PM81.5 °F78.4 °F90 %29.77 in10.0 miENE (70°)16.1 mphScattered Clouds
2:12 PM80.6 °F78.8 °F94 %29.79 in5.0 miENE (60°)16.1 mphRainLight Rain
2:22 PM78.8 °F78.8 °F100 %29.79 in8.0 miENE (60°)16.1 mphScattered Clouds
2:58 PM80.2 °F77.4 °F91 %29.76 in10.0 miENE (70°)17.3 mph0.02 inPartly Cloudy
3:48 PM80.6 °F78.8 °F94 %29.78 in10.0 miENE (60°)13.8 mphMostly Cloudy
3:58 PM80.8 °F78.4 °F93 %29.75 in10.0 miNE (50°)17.3 mphMostly Cloudy
4:08 PM80.6 °F78.8 °F94 %29.79 in10.0 miENE (60°)13.8 mphMostly Cloudy
4:13 PM80.6 °F78.8 °F94 %29.79 in10.0 miENE (60°)13.8 mphMostly Cloudy
4:18 PM80.6 °F78.8 °F94 %29.79 in10.0 miNE (50°)17.3 mph23.0 mphMostly Cloudy
4:23 PM80.6 °F78.8 °F94 %29.79 in10.0 miENE (60°)15.0 mph23.0 mphMostly Cloudy
4:28 PM80.6 °F78.8 °F94 %29.80 in10.0 miENE (60°)13.8 mph23.0 mphMostly Cloudy
4:38 PM80.6 °F78.8 °F94 %29.80 in10.0 miENE (60°)15.0 mphMostly Cloudy
4:53 PM80.6 °F77.0 °F89 %29.80 in10.0 miENE (60°)13.8 mphMostly Cloudy
4:58 PM80.6 °F77.9 °F91 %29.77 in10.0 miENE (60°)16.1 mphMostly Cloudy
5:08 PM80.6 °F77.0 °F89 %29.80 in10.0 miENE (70°)13.8 mph21.9 mphScattered Clouds
5:23 PM80.6 °F77.0 °F89 %29.80 in10.0 miENE (70°)15.0 mphMostly Cloudy
5:28 PM80.6 °F77.0 °F89 %29.80 in10.0 miENE (70°)12.7 mphScattered Clouds
5:48 PM80.6 °F78.8 °F94 %29.80 in10.0 miENE (60°)17.3 mphMostly Cloudy
5:53 PM80.6 °F78.8 °F94 %29.81 in10.0 miENE (60°)16.1 mphScattered Clouds
5:55 PM80.6 °F78.8 °F94 %29.81 in9.0 miENE (60°)16.1 mphLight Drizzle
5:58 PM80.4 °F78.6 °F94 %29.78 in9.0 miENE (60°)17.3 mph0.00 inLight Drizzle
6:06 PM80.6 °F78.8 °F94 %29.81 in10.0 miENE (60°)16.1 mphScattered Clouds
6:36 PM80.6 °F78.8 °F94 %29.82 in10.0 miENE (60°)15.0 mphMostly Cloudy
6:58 PM80.4 °F78.8 °F95 %29.79 in10.0 miENE (60°)17.3 mph24.2 mph0.00 inMostly Cloudy
7:03 PM80.6 °F78.8 °F94 %29.83 in10.0 miENE (60°)13.8 mph24.2 mphScattered Clouds
7:58 PM80.6 °F78.1 °F92 %29.82 in10.0 miEast (80°)17.3 mph23.0 mphScattered Clouds
8:24 PM80.6 °F78.8 °F94 %29.85 in9.0 miENE (70°)16.1 mphRainLight Rain
8:34 PM80.6 °F77.0 °F89 %29.85 in10.0 miEast (80°)18.4 mph25.3 mphPartly Cloudy
8:58 PM80.1 °F78.4 °F95 %29.82 in10.0 miEast (80°)18.4 mph24.2 mph0.00 inClear
9:43 PM80.6 °F78.8 °F94 %29.85 in10.0 miEast (80°)18.4 mphMostly Cloudy
9:48 PM80.6 °F78.8 °F94 %29.85 in10.0 miEast (80°)16.1 mph23.0 mphScattered Clouds
9:58 PM80.4 °F78.3 °F93 %29.82 in10.0 miENE (70°)18.4 mphScattered Clouds
10:28 PM80.6 °F78.8 °F94 %29.85 in10.0 miEast (80°)16.1 mphMostly Cloudy
10:33 PM80.6 °F78.8 °F94 %29.85 in10.0 miEast (80°)13.8 mphScattered Clouds
10:43 PM80.6 °F78.8 °F94 %29.85 in10.0 miEast (80°)13.8 mph21.9 mphMostly Cloudy
10:53 PM80.6 °F78.8 °F94 %29.86 in10.0 miEast (90°)17.3 mph21.9 mphMostly Cloudy
10:58 PM80.6 °F78.4 °F93 %29.83 in10.0 miEast (80°)13.8 mph21.9 mphScattered Clouds
11:03 PM80.6 °F78.8 °F94 %29.85 in10.0 miEast (80°)15.0 mph21.9 mphMostly Cloudy
11:13 PM80.6 °F78.8 °F94 %29.86 in10.0 miEast (80°)17.3 mph23.0 mphScattered Clouds
11:58 PM79.7 °F77.5 °F93 %29.81 in10.0 miEast (90°)13.8 mphScattered Clouds
Hourly data recorded from PGUA, located miles away from Mangilao, Guam







STORIES FROM OUR PARTNERS